sat.trackr.live / text

‹ back to catalog

STARLINK-1423

NORAD 45710 · 2020-035BF

PAYLOAD ACTIVE UNKNOWN

§ Identity

Operator
Country
US
Launch date
2020-06-04
Launch site
AFETR
Launch vehicle
Mass (kg)
RCS (m²)

Purposes: comms

External: N2YO · Heavens-Above · Gunter

§ Orbital elements

Epoch: 2026-09-20T04:46:46.452864Z

Period
90.91 min
Inclination
53.0365°
Eccentricity
0.0006118
Mean motion
15.84041847 rev/d
Perigee alt
314.9 km
Apogee alt
323.1 km
Semi-major
6,697.2 km
B*
4.3030e-4
RAAN
140.9481°
Arg perigee
104.7650°
Mean anomaly
255.4050°
Rev number
34,989

§ Raw data

STARLINK-14231 45710U 20035BF  26263.19914876  .00099039  00000+0  43030-3 0  99932 45710  53.0365 140.9481 0006118 104.7650 255.4050 15.84041847349893

JSON: /api/v1/satellites/45710 · /tle

For live sub-satellite position, see the globe view (requires WebGL).

§ Visibility from observer

Set your observer location to see the next 7 days of passes ≥ 10°. The values pass through the URL so the page stays shareable.

No JS? Fill the form by hand. The geolocation button needs JavaScript.